#timestamp,LO_Frequency,Hit 
1616166015.7,286047000.7,N
1616166035.6,286047000.5,N
1616166055.4,286047000.8,N
1616166075.2,286047000.0,N
1616166095.1,286047001.1,N
1616166096.0,286047001.1,N
1616166115.8,286047001.0,N
1616166135.6,286047000.3,N
1616166155.5,286046998.5,N
1616166175.3,286046998.1,N
1616166195.1,286047000.6,N
1616166215.9,286047000.5,N
1616166235.7,286047000.6,N
1616166255.5,286047000.8,N
1616166275.4,286047000.7,N
1616166295.2,286047000.5,N
1616166315.0,286046998.6,N
1616166315.9,286046998.6,N
1616166335.8,286046998.2,N
1616166355.6,286047001.2,N
1616166375.4,286047001.1,N
1616166395.3,286047000.5,N
1616166415.1,286047000.9,N
1616166416.0,286047000.9,N
1616166435.8,286046998.7,N
1616166455.7,286046998.9,N
1616166475.5,286046998.7,N
1616166495.3,286047000.0,N
1616166515.2,286046999.4,N
1616166535.9,286047000.8,N
1616166555.7,286046998.9,N
1616166575.5,286047001.1,N
1616166595.4,286046998.2,N
1616166615.2,286047001.1,N
1616166635.0,286046998.4,N
1616166635.9,286046998.4,N
1616166655.8,286047000.9,N
1616166675.6,286046998.7,N
1616166695.4,286047001.2,N
1616166715.3,286046999.2,N
1616166735.1,286046999.1,N
1616166755.8,286046999.0,N
1616166775.7,286046998.8,N
1616166795.5,286046996.6,P
1616166815.3,286046996.5,N
1616166835.2,286046999.4,N
1616166855.0,286046999.1,N
1616166855.9,286046999.1,N
1616166875.7,286046999.5,N
1616166895.6,286046999.1,N
1616166915.4,286046996.6,N
1616166935.2,286046999.5,N
1616166955.1,286046999.6,N
1616166956.0,286046999.6,N
1616166975.8,286046997.6,N
1616166995.6,286046997.3,N
1616167015.5,286046997.8,N
1616167035.3,286046996.8,N
1616167055.1,286046997.3,N
1616167075.9,286046995.4,P
1616167095.7,286046999.6,N
1616167115.5,286046999.3,N
1616167135.4,286046999.1,N
1616167155.2,286046999.1,N
1616167175.0,286046999.3,N
1616167175.9,286046999.3,N
1616167195.8,286046999.0,N
1616167215.6,286046999.0,N
1616167235.4,286046997.5,N
1616167255.3,286046997.7,N
1616167275.1,286046997.1,N
1616167276.0,286046997.1,N
1616167295.8,286046996.8,N
1616167315.7,286046997.5,N
1616167335.5,286046997.1,N
1616167355.3,286046997.8,N
1616167375.2,286046997.3,N
1616167395.9,286046995.6,P
1616167415.7,286046999.4,N
1616167435.6,286046999.5,N
1616167455.4,286046998.7,N
1616167475.2,286046999.4,N
1616167495.1,286046998.4,N
1616167496.0,286046998.4,N
1616167515.8,286046999.3,N
1616167535.6,286046996.7,N
1616167555.5,286046999.3,N
1616167575.3,286046999.1,N
1616167595.1,286046999.5,N
1616167615.9,286046998.1,N
1616167635.7,286046999.0,N
1616167655.5,286046999.2,N
1616167675.4,286046999.1,N
1616167695.2,286047001.1,N
1616167715.0,286046998.7,N
1616167715.9,286046998.7,N
1616167735.8,286046998.9,N
1616167755.6,286046999.5,N
1616167775.4,286046999.5,N
1616167795.3,286046996.5,P
1616167815.1,286046998.1,N
1616167816.0,286046998.1,N
1616167835.8,286046998.2,N
1616167855.7,286047000.7,N
1616167875.5,286047000.5,N
1616167895.3,286046998.4,N
1616167915.2,286046998.2,N
1616167935.9,286047000.8,N
1616167955.7,286047001.0,N
1616167975.5,286047000.6,N
1616167995.4,286047000.4,N
1616168015.2,286046998.4,N
1616168035.0,286046998.4,N
1616168035.9,286046998.4,N
1616168055.8,286046998.9,N
1616168075.6,286046998.2,N
1616168095.4,286047001.2,N
1616168115.3,286047000.8,N
1616168135.1,286047000.9,N
1616168155.8,286047001.2,N
1616168175.7,286047001.0,N
1616168195.5,286047002.8,N
1616168215.3,286047000.3,N
1616168235.2,286047000.5,N
1616168255.9,286047001.1,N
1616168275.7,286047000.1,N
1616168295.6,286047000.0,N
1616168315.4,286046999.9,N
1616168335.2,286047000.1,N
1616168355.1,286047000.7,N
1616168356.0,286047000.7,N
1616168375.8,286047000.5,N
1616168395.6,286047002.7,N
1616168415.5,286047000.0,N
1616168435.3,286047002.7,N
1616168455.1,286047002.8,N
1616168475.8,286047000.0,N
1616168495.7,286047002.5,N
1616168515.5,286047000.3,N
1616168535.3,286047002.3,N
1616168555.2,286047002.5,N
1616168575.0,286047002.4,N
1616168575.9,286047002.4,N
1616168595.7,286046999.8,N
1616168615.6,286047000.0,N
1616168635.4,286047000.4,N
1616168655.2,286047000.1,N
1616168675.1,286047002.1,N
1616168676.0,286047002.1,N
1616168695.8,286047002.6,N
1616168715.6,286047002.7,N
1616168735.5,286047002.5,N
1616168755.3,286047002.5,N
1616168775.1,286047000.2,N
1616168795.9,286047002.6,N
1616168815.7,286047002.2,N
1616168835.5,286047001.7,N
1616168855.4,286047002.7,N
1616168875.2,286046999.9,N
1616168895.0,286047002.5,N
1616168895.9,286047002.5,N
1616168915.8,286047001.6,N
1616168935.6,286047002.5,N
1616168955.4,286047000.1,N
1616168975.3,286047002.3,N
1616168995.1,286047002.7,N
1616168996.0,286047002.7,N
1616169015.8,286047000.1,N
1616169035.7,286047002.6,N
1616169055.5,286047002.4,N
1616169075.3,286047000.4,N
1616169095.1,286047002.6,N
1616169115.9,286047002.5,N
1616169135.7,286047002.3,N
1616169155.5,286046999.8,N
1616169175.4,286047004.4,P
1616169195.2,286047000.6,N
1616169215.1,286047001.2,N
1616169216.0,286047001.2,N
1616169235.8,286047000.6,N
1616169255.6,286047000.6,N
1616169275.5,286047000.5,N
1616169295.3,286047001.0,N
1616169315.1,286047000.4,N
1616169335.8,286046999.7,N
1616169355.7,286047000.8,N
1616169375.5,286047000.6,N
1616169395.3,286047000.2,N
1616169415.2,286046999.9,N
1616169435.0,286047000.0,N
1616169435.9,286047000.0,N
1616169455.7,286047000.3,N
1616169475.6,286047002.4,N
1616169495.4,286047000.1,N
1616169515.2,286047000.5,N
1616169535.1,286047002.2,N
1616169536.0,286047002.2,N
1616169555.8,286047002.2,N
1616169575.6,286047002.1,N
1616169595.5,286047002.5,N
